Regional Weather Roundup
Issued by NWS Kansas City/Pleasant Hill, MO

Home | Current Version | Previous Version | Graphics & Text | Print | Product List | Glossary Off
Versions: 1 2 3 4 5 6 7 8 9 10 11 12 13 14 15 16 17 18 19 20 21 22 23 24 25 26 27 28 29 30 31 32 33 34 35 36 37 38 39 40 41 42 43 44 45 46 47 48 49 50

548
ASUS43 KEAX 251410
RWREAX

WEATHER ROUNDUP FOR EASTERN KANSAS AND NORTHWEST MISSOURI
NATIONAL WEATHER SERVICE KANSAS CITY/PLEASANT HILL MO
900 AM CDT WED APR 25 2018

KSZ040-057-103>105-MOZ028-029-037-043-251500-
...KANSAS CITY METROPOLITAN AREA...

CITY           SKY/WX    TMP DP  RH WIND       PRES   REMARKS
K.C. INTL      LGT RAIN  50  46  86 N9        30.16S
K.C. DOWNTOWN  LGT RAIN  52  46  80 N7        30.15F
LEES SUMMIT    CLOUDY    51  46  83 NW9       30.16R
OLATHE - IXD   CLOUDY    50  48  93 N7        30.15F
OLATHE - OJC   CLOUDY    50  47  89 N9        30.15S
LAWRENCE       CLOUDY    50  48  93 N12       30.18R

$$

MOZ001>008-011>017-020>025-030>033-038>040-044>046-053-054-251500-
...NORTHERN AND CENTRAL MISSOURI...

CITY           SKY/WX    TMP DP  RH WIND       PRES   REMARKS
ST. JOSEPH     LGT RAIN  48  48 100 N10       30.19R FOG
MOSBY          CLOUDY    52  45  76 NW6       30.17R
WARRENSBURG    DRIZZLE   54  43  66 NW6       30.15R
WHITEMAN AFB   DRIZZLE   55  43  65 NW8       30.10R
CLINTON        LGT RAIN  55  46  71 NW6       30.14S
SEDALIA        CLOUDY    57  44  62 NW6       30.13R
WARSAW         NOT AVBL
CHILLICOTHE      N/A     53  40  61 N6        30.16R
KIRKSVILLE     CLOUDY    52  40  63 N13       30.14R

$$

MOZ041-047>049-056>058-063>065-088>090-097-251500-
...EASTERN AND SOUTHERN MISSOURI...

CITY           SKY/WX    TMP DP  RH WIND       PRES   REMARKS
ST. LOUIS INTL CLOUDY    59  45  59 N9        30.05R
SPIRIT OF STL  PTSUNNY   59  44  57 N6        30.04S
COLUMBIA       CLOUDY    56  40  55 N9        30.10R
JEFFERSON CITY CLOUDY    57  41  55 N7        30.10R
ROLLA          CLOUDY    56  44  64 NW9       30.09R
OSAGE BEACH    CLOUDY    56  45  66 VRB5      30.11R
SPRINGFIELD    LGT RAIN  54  47  77 NW8       30.13R
BRANSON        MOSUNNY   54  46  76 NW5       30.12R
JOPLIN         RAIN      52  51  97 CALM      30.16F FOG
WEST PLAINS    PTSUNNY   58  43  57 N8        30.08R

$$

IAZ060-094-KSZ022-034>040-054-083-096-NEZ052-066-093-251500-
...KANSAS...SOUTHEAST NEBRASKA AND IOWA...

CITY           SKY/WX    TMP DP  RH WIND       PRES   REMARKS
TOPEKA         LGT RAIN  50  49  96 N7        30.18F FOG
MANHATTAN      LGT RAIN  48  45  89 N6        30.20S
EMPORIA        LGT RAIN  48  47  96 NW9       30.17S FOG
CHANUTE        LGT RAIN  52  51  97 N3        30.16F FOG
WICHITA        CLOUDY    46  44  93 NW13      30.19F
OMAHA          LGT RAIN  43  40  89 N12       30.25R
LINCOLN        LGT RAIN  44  40  85 N13       30.27S
FALLS CITY     LGT RAIN  46  46 100 N12       30.20R FOG
LAMONI         LGT RAIN  47  38  71 N10       30.17R
DES MOINES     CLOUDY    50  34  54 NE12      30.19S

$$





USA.gov is the U.S. government's official web portal to all federal, state and local government web resources and services.